Regional Weather Roundup
Issued by NWS San Angelo, TX

Home | Current Version | Previous Version | Text Only | Print | Product List | Glossary On
Versions: 1 2 3 4 5 6 7 8 9 10 11 12 13 14 15 16 17 18 19 20 21 22 23 24 25 26 27 28 29 30 31 32 33 34 35 36 37 38 39 40 41 42 43 44 45 46 47 48 49 50
000
ASUS44 KSJT 200410
RWRSJT
WEST CENTRAL TEXAS REGIONAL WEATHER ROUNDUP
NATIONAL WEATHER SERVICE SAN ANGELO TX
1000 PM CST FRI DEC 19 2014

NOTE: "FAIR" INDICATES FEW OR NO CLOUDS BELOW 12,000 FEET WITH NO
SIGNIFICANT WEATHER AND/OR OBSTRUCTIONS TO VISIBILITY.

TXZ049-054-064>066-071>073-076>078-098-099-113-114-127-128-139-140-
154-155-168>170-200500
...LOCATIONS ACROSS WEST CENTRAL TEXAS...

CITY           SKY/WX    TMP DP  RH WIND       PRES   REMARKS
SAN ANGELO     PTCLDY    45  39  79 E5        30.19S
ABILENE        CLOUDY    44  41  89 CALM      30.20S
DYESS AFB      NOT AVBL
JUNCTION       CLEAR     44  42  93 N5        30.17S
SWEETWATER     CLOUDY    45  38  78 NE5       30.21S
BROWNWOOD      CLOUDY    48  41  76 N5        30.21R
COLEMAN        CLOUDY    47  43  87 NE6       30.21R
SONORA         CLEAR     45  41  87 N7        30.21S
OZONA          FAIR      39  37  93 NE8       30.19S WCI  34
BRADY          CLOUDY    46  43  87 E5        30.19R
$$

TEXAS PANHANDLE/OKLAHOMA PANHANDLE

CITY           SKY/WX    TMP DP  RH WIND       PRES   REMARKS
AMARILLO       MOCLDY    37  33  85 S6        30.14F WCI  32
BORGER         CLOUDY    41  34  76 S6        30.14S WCI  37
CANADIAN       CLOUDY    43  39  86 S3        30.16R
DALHART        CLEAR     27  25  92 SW3       30.12R FOG
DUMAS          CLEAR     27  26  96 S6        30.12S WCI  20
GUYMON         NOT AVBL
HEREFORD       FOG       29  29 100 S3        30.14S VSB 1
PAMPA          CLOUDY    39  35  86 SW8       30.15R WCI  34
PERRYTON       CLOUDY    40  36  87 S8        30.12S WCI  34
$$

SOUTHERN PANHANDLE/SOUTH PLAINS/ROLLING PLAINS

CITY           SKY/WX    TMP DP  RH WIND       PRES   REMARKS
LUBBOCK        PTCLDY    37  35  92 E5        30.15F WCI  33
SNYDER         CLOUDY    42  38  85 NE5       30.19S WCI  39
CHILDRESS      CLOUDY    42  39  89 S6        30.20R WCI  38
SEMINOLE       CLEAR     34  33  96 CALM      30.17R
$$

PERMIAN BASIN

CITY           SKY/WX    TMP DP  RH WIND       PRES   REMARKS
MIDLAND        CLEAR     39  36  89 SE7       30.16R WCI  34
ODESSA         CLEAR     39  35  86 SE10      30.16R WCI  32
WINK           CLEAR     42  30  62 E8        30.13R WCI  37
$$

FAR WEST/SOUTHWEST MOUNTAINS/TRANS PECOS

CITY           SKY/WX    TMP DP  RH WIND       PRES   REMARKS
ALPINE         CLEAR     34  26  74 SW7       30.22F WCI  27
DRYDEN           N/A     48  37  65 NE8       30.14R
EL PASO        PTCLDY    44  29  55 N7        30.16R
FORT STOCKTON  CLEAR     44  33  65 S8        30.15R WCI  39
GUADALUPE PASS NOT AVBL
MARFA          CLEAR     30  21  69 N6        30.18S WCI  24
PECOS          CLEAR     40  30  65 SW8       30.14R WCI  35
$$

DALLAS/FORT WORTH METROPLEX

CITY           SKY/WX    TMP DP  RH WIND       PRES   REMARKS
DFW AIRPORT    CLOUDY    47  43  86 N8        30.21R
FTW MEACHAM    CLOUDY    46  43  89 N9        30.21S FOG
DAL-EXECUTIVE  CLOUDY    49  44  83 N9        30.20R
GRAND PRAIRIE  CLOUDY    47  46  96 N12       30.23S
ADDISON        CLOUDY    47  47 100 N5        30.23S
MESQUITE       CLOUDY    47  45  91 N7        30.22R
LANCASTER      CLOUDY    47  44  87 N3        30.22S
$$

NORTH CENTRAL TEXAS

CITY           SKY/WX    TMP DP  RH WIND       PRES   REMARKS
SHRMAN/DENISON CLOUDY    45  44  97 CALM      30.23S
GAINESVILLE    CLOUDY    44  40  88 N3        30.25R
BRIDGEPORT     CLOUDY    46  42  87 N3        30.25S
DENTON         CLOUDY    45  41  86 N6        30.22S
WAXAHACHIE     CLOUDY    47  47  99 N7        30.22R FOG
GRANBURY       CLOUDY    49  44  84 CALM      30.24R
$$

WESTERN NORTH TEXAS

CITY           SKY/WX    TMP DP  RH WIND       PRES   REMARKS
WICHITA FALLS  CLOUDY    44  40  85 CALM      30.22F
VERNON         CLOUDY    45  39  81 CALM      30.22F
BRECKENRIDGE   CLOUDY    46  43  87 NE6       30.21S
COMANCHE       CLOUDY    46  46  99 NE6       30.21R
$$

CENTRAL AND SOUTH CENTRAL TEXAS

CITY           SKY/WX    TMP DP  RH WIND       PRES   REMARKS
AUSTIN/BERGSTM CLOUDY    50  45  83 N13       30.19R
WACO           CLOUDY    48  46  93 N5        30.21R
HILLSBORO      CLOUDY    48  46  91 NW6       30.21R FOG
TEMPLE         CLOUDY    48  43  81 NW9       30.18R
KILLEEN-GRAY   CLOUDY    45  45  99 N9        30.19S FOG
FORT HOOD      CLOUDY    46  46  98 NW9       30.18S FOG
GEORGETOWN     NOT AVBL
LAGO VISTA     DRIZZLE   47  45  93 N5        30.19R
SAN MARCOS     CLOUDY    50  45  81 N15       30.18S
NEW BRAUNFELS  CLOUDY    52  46  80 N12       30.17R
RANDOLPH AFB   CLOUDY    52  45  78 N15       30.17R
SAN ANTONIO    CLOUDY    53  45  74 N14G20    30.16S
STINSON        CLOUDY    53  45  74 NE10      30.15R
PLEASANTON     NOT AVBL
LA GRANGE      CLOUDY    52  49  89 N7        30.15R
GIDDINGS       CLOUDY    49  46  88 N9        30.21R
$$

EAST TEXAS

CITY           SKY/WX    TMP DP  RH WIND       PRES   REMARKS
PARIS          MOCLDY    45  41  87 CALM      30.22S
CLARKSVILLE    NOT AVBL
TYLER          CLOUDY    47  44  90 NE9       30.19R FOG
LONGVIEW       CLOUDY    48  44  86 NE7       30.19R
PALESTINE      CLOUDY    47  47 100 N5        30.20R FOG
NACOGDOCHES    CLOUDY    46  45  93 NE3       30.17S
$$

TEXAS HILL COUNTRY AND EDWARDS PLATEAU

CITY           SKY/WX    TMP DP  RH WIND       PRES   REMARKS
LLANO          CLOUDY    48  45  87 NE6       30.22S
HORSESHOE BAY  CLOUDY    49  43  82 CALM      30.19S
KERRVILLE      CLEAR     46  43  88 CALM      30.17R
FREDERICKSBRG  CLOUDY    47  43  84 NE9       30.16F
ROCKSPRINGS    CLEAR     45  43  93 E5        30.17S
HONDO          CLEAR     48  44  86 NE8       30.17R
UVALDE         CLEAR     40  38  91 E5        30.16R WCI  37
DEL RIO        CLEAR     55  50  83 NE5       30.13R
$$

SOUTHEAST TEXAS

CITY           SKY/WX    TMP DP  RH WIND       PRES   REMARKS
COLLEGE STN    CLOUDY    50  48  93 N10       30.17R
CALDWELL       CLOUDY    48  48 100 N9        30.21R
CROCKETT       CLOUDY    52  50  93 N7        30.20R
BRENHAM        CLOUDY    53  51  92 N12       30.16R
HUNTSVILLE     CLOUDY    50  49  96 N5        30.15S FOG
CONROE         CLOUDY    51  49  92 N6        30.14R
HOUSTON BUSH   CLOUDY    53  51  93 N9        30.12R
HOUSTON HOBBY  CLOUDY    54  52  93 N15       30.11R
PERLAND        LGT RAIN  54  53  97 NE10      30.12R FOG
WHARTON        CLOUDY    54  52  94 N14G21    30.14R
$$

THE UPPER TEXAS COAST

CITY           SKY/WX    TMP DP  RH WIND       PRES   REMARKS
ORANGE         CLOUDY    51  51  99 N12       30.11S
PORT ARTHUR    CLOUDY    52  50  93 N14G22    30.09S
GALVESTON      LGT RAIN  54  54 100 N18       30.10R
ANGLETON       LGT RAIN  54  54 100 N13       30.10R
BAY CITY         N/A     56  56 100 N9        30.10R FOG
$$

TEXAS COASTAL BEND, RIO GRANDE PLAINS DEEP SOUTH TEXAS

CITY           SKY/WX    TMP DP  RH WIND       PRES   REMARKS
VICTORIA       CLOUDY    56  51  84 N12       30.14R
BEEVILLE       CLOUDY    56  51  85 N12       30.13S
ROCKPORT       CLOUDY    58  55  90 N17       30.11R
PORT ARANSAS   CLOUDY    60  56  89 N16       30.10R
PORT LAVACA    CLOUDY    55  53  94 N14G21    30.13R
CORPUS CHRISTI CLOUDY    59  54  83 N13       30.12R
KINGSVILLE NAS CLOUDY    62  57  83 N8        30.12R
COTULLA        CLEAR     54  50  86 NE9       30.14R
LAREDO         CLEAR     55  52  88 CALM      30.16R
BROWNSVILLE    CLOUDY    61  57  87 N10       30.10R
PORT ISABEL    CLOUDY    62  57  83 N12       30.08R
HEBBRONVILLE   CLEAR     53  51  92 N6        30.13R
MCALLEN        MOCLDY    60  56  86 N7        30.11S
WESLACO        CLOUDY    61  55  81 N7        30.10S
FALFURRIAS     CLOUDY    62  55  77 N8        30.11R
EDINBURG       CLOUDY    64  55  75 N8        30.11S
$$



USA.gov is the U.S. government's official web portal to all federal, state and local government web resources and services.